Location: Gad�tanya
(48.0500°N, 20.8500°E)
Time: 11:45:38
(UTC+00:00)

Cosmos 1400 Rocket - Pass Details

Date: 05 July 2020
Orbit: 520 x 569 km, 81.2° (Epoch: 14 August)

Event Time Altitude Azimuth Distance (km) Brightness Sun altitude
Rises 19:32:32 0° 350° (N) 2,729 7.5 -7.6°
Reaches altitude 10° 19:34:44 10° 352° (N) 1,823 6.4 -7.8°
Maximum altitude 19:38:44 72° 77° (ENE) 572 2.8 -8.3°
Drops below altitude 10° 19:42:39 10° 163° (SSE) 1,779 4.8 -8.7°
Enters shadow 19:42:45 - 163° (SSE) 1,818 4.9 -8.7°
